SHT1G EGLL-EGPB

Flight info

Callsign SHT1G
Flight time 1h 28m
Altitude 38000
Route ULTIB T420 AKUPA DCT AGPED/N0429F370 DCT MADAD DCT MOCHA
Aircraft A319/M-SDE3FGHIRWY/LB1

Departure

Time 2026-04-25 15:38
Airport London Heathrow Airport (EGLL)

Arrival

Time 2026-04-25 17:06
Airport Sumburgh Airport (EGPB)
Time Latitude Longitude Altitude Speed Heading
2026-04-25 15:17 51.47134 -0.48612 86 ft 0 kts 269°
2026-04-25 15:28 51.47134 -0.48595 91 ft 3 kts 270°
2026-04-25 15:29 51.47134 -0.48562 89 ft 3 kts 269°
2026-04-25 15:29 51.47135 -0.48529 90 ft 3 kts 265°
2026-04-25 15:29 51.47138 -0.48497 88 ft 3 kts 248°
2026-04-25 15:29 51.47146 -0.48475 89 ft 3 kts 197°
2026-04-25 15:30 51.47157 -0.48472 90 ft 3 kts 180°
2026-04-25 15:30 51.47175 -0.48473 87 ft 0 kts 180°
2026-04-25 15:33 51.47158 -0.48472 90 ft 5 kts 180°
2026-04-25 15:33 51.47101 -0.48472 86 ft 10 kts 180°
2026-04-25 15:34 51.47015 -0.48471 86 ft 14 kts 179°
2026-04-25 15:34 51.46906 -0.48470 89 ft 18 kts 180°
2026-04-25 15:34 51.46772 -0.48469 86 ft 21 kts 179°
2026-04-25 15:34 51.46723 -0.48468 86 ft 21 kts 180°
2026-04-25 15:35 51.46479 -0.48404 87 ft 4 kts 89°
2026-04-25 15:35 51.46479 -0.48395 87 ft 0 kts 88°
2026-04-25 15:37 51.46480 -0.48321 88 ft 26 kts 89°
2026-04-25 15:37 51.46481 -0.47669 86 ft 92 kts 90°
2026-04-25 15:37 51.46486 -0.46331 89 ft 146 kts 90°
2026-04-25 15:37 51.46487 -0.44511 476 ft 168 kts 90°
2026-04-25 15:38 51.46496 -0.42631 1274 ft 170 kts 88°
2026-04-25 15:38 51.46825 -0.40699 1721 ft 194 kts 57°
2026-04-25 15:38 51.47743 -0.38937 2215 ft 216 kts 49°
2026-04-25 15:38 51.48785 -0.36996 2786 ft 243 kts 49°
2026-04-25 15:39 51.49918 -0.34849 3666 ft 258 kts 50°
2026-04-25 15:39 51.51086 -0.32606 4843 ft 264 kts 50°
2026-04-25 15:39 51.52199 -0.30228 5990 ft 270 kts 61°
2026-04-25 15:39 51.52879 -0.27383 7090 ft 275 kts 70°
2026-04-25 15:40 51.53453 -0.24671 8082 ft 280 kts 70°
2026-04-25 15:40 51.53666 -0.23663 8440 ft 282 kts 70°
2026-04-25 15:40 51.55256 -0.19103 10069 ft 291 kts 36°
2026-04-25 15:40 51.56965 -0.17829 10640 ft 307 kts
2026-04-25 15:41 51.59116 -0.18108 11255 ft 319 kts 338°
2026-04-25 15:41 51.61057 -0.19864 12116 ft 323 kts 320°
2026-04-25 15:41 51.62498 -0.22639 13038 ft 326 kts 301°
2026-04-25 15:41 51.63723 -0.25717 13951 ft 329 kts 308°
2026-04-25 15:42 51.65393 -0.28256 14758 ft 333 kts 322°
2026-04-25 15:42 51.67359 -0.30280 15580 ft 337 kts 328°
2026-04-25 15:42 51.69406 -0.32164 16392 ft 341 kts 329°
2026-04-25 15:42 51.71469 -0.33983 17186 ft 344 kts 330°
2026-04-25 15:43 51.73593 -0.35820 17985 ft 348 kts 330°
2026-04-25 15:43 51.75737 -0.37678 18741 ft 352 kts 330°
2026-04-25 15:43 51.77904 -0.39570 19369 ft 356 kts 329°
2026-04-25 15:43 51.80119 -0.41525 20053 ft 360 kts 329°
2026-04-25 15:44 51.82282 -0.43497 20726 ft 364 kts 328°
2026-04-25 15:44 51.84469 -0.45594 21085 ft 366 kts 327°
2026-04-25 15:44 51.86649 -0.47745 21423 ft 369 kts 327°
2026-04-25 15:44 51.88845 -0.49927 22078 ft 372 kts 326°
2026-04-25 15:45 51.91067 -0.52131 22727 ft 376 kts 326°
2026-04-25 15:45 51.93312 -0.54347 23369 ft 380 kts 327°
2026-04-25 15:45 51.95584 -0.56571 23978 ft 384 kts 327°
2026-04-25 15:45 51.96359 -0.57328 24150 ft 385 kts 327°
2026-04-25 15:46 52.00207 -0.61081 25072 ft 391 kts 327°
2026-04-25 15:46 52.02535 -0.63355 25614 ft 394 kts 327°
2026-04-25 15:46 52.04891 -0.65659 26162 ft 397 kts 327°
2026-04-25 15:46 52.07270 -0.67990 26684 ft 400 kts 327°
2026-04-25 15:47 52.09661 -0.70341 27194 ft 403 kts 327°
2026-04-25 15:47 52.11993 -0.72904 27708 ft 405 kts 321°
2026-04-25 15:47 52.14257 -0.75679 28228 ft 408 kts 321°
2026-04-25 15:47 52.16526 -0.78484 28735 ft 411 kts 321°
2026-04-25 15:48 52.18816 -0.81322 29261 ft 414 kts 321°
2026-04-25 15:48 52.20338 -0.83212 29591 ft 416 kts 321°
2026-04-25 15:48 52.22641 -0.86078 30095 ft 419 kts 321°
2026-04-25 15:48 52.24972 -0.88984 30537 ft 422 kts 321°
2026-04-25 15:49 52.28086 -0.92869 31103 ft 426 kts 321°
2026-04-25 15:49 52.29680 -0.94863 31387 ft 428 kts 321°
2026-04-25 15:49 52.32048 -0.97840 31777 ft 431 kts 321°
2026-04-25 15:49 52.34429 -1.00833 32322 ft 430 kts 321°
2026-04-25 15:50 52.36799 -1.03805 32892 ft 429 kts 321°
2026-04-25 15:50 52.39169 -1.06773 33450 ft 428 kts 321°
2026-04-25 15:50 52.41503 -1.09692 34024 ft 428 kts 321°
2026-04-25 15:50 52.43898 -1.12686 34522 ft 427 kts 321°
2026-04-25 15:51 52.46225 -1.15597 34994 ft 426 kts 321°
2026-04-25 15:51 52.47816 -1.17587 35299 ft 426 kts 321°
2026-04-25 15:51 52.51271 -1.20621 35870 ft 430 kts 341°
2026-04-25 15:51 52.54199 -1.21654 36303 ft 431 kts 348°
2026-04-25 15:52 52.57156 -1.22471 36740 ft 431 kts 349°
2026-04-25 15:52 52.60112 -1.23264 37170 ft 430 kts 349°
2026-04-25 15:52 52.63065 -1.24045 37593 ft 430 kts 349°
2026-04-25 15:52 52.66057 -1.24830 38012 ft 429 kts 349°
2026-04-25 15:53 52.68969 -1.25597 38153 ft 430 kts 349°
2026-04-25 15:53 52.71920 -1.26380 38169 ft 429 kts 349°
2026-04-25 15:53 52.77801 -1.27972 38194 ft 429 kts 349°
2026-04-25 15:54 52.83687 -1.29569 38193 ft 428 kts 349°
2026-04-25 15:54 52.89571 -1.31159 38193 ft 428 kts 349°
2026-04-25 15:55 52.95455 -1.32757 38193 ft 428 kts 349°
2026-04-25 15:55 53.01339 -1.34359 38197 ft 429 kts 349°
2026-04-25 15:56 53.07227 -1.35966 38201 ft 428 kts 349°
2026-04-25 15:56 53.13105 -1.37585 38200 ft 428 kts 349°
2026-04-25 15:57 53.18978 -1.39200 38197 ft 428 kts 349°
2026-04-25 15:57 53.24857 -1.40813 38205 ft 428 kts 348°
2026-04-25 15:58 53.30728 -1.42438 38203 ft 428 kts 348°
2026-04-25 15:58 53.36605 -1.44065 38207 ft 428 kts 348°
2026-04-25 15:59 53.42437 -1.45676 38204 ft 427 kts 348°
2026-04-25 15:59 53.48306 -1.47308 38208 ft 427 kts 348°
2026-04-25 16:00 53.52227 -1.48410 38206 ft 427 kts 348°
2026-04-25 16:00 53.60040 -1.50606 38212 ft 428 kts 348°
2026-04-25 16:01 53.65912 -1.52247 38217 ft 428 kts 348°
2026-04-25 16:01 53.71786 -1.53895 38220 ft 428 kts 348°
2026-04-25 16:02 53.77658 -1.55553 38230 ft 428 kts 348°
2026-04-25 16:02 53.83535 -1.57227 38229 ft 428 kts 349°
2026-04-25 16:03 53.89422 -1.58912 38215 ft 429 kts 349°
2026-04-25 16:03 53.95313 -1.60590 38212 ft 430 kts 349°
2026-04-25 16:04 54.01211 -1.62272 38217 ft 430 kts 349°
2026-04-25 16:04 54.07114 -1.63959 38217 ft 430 kts 349°
2026-04-25 16:05 54.13017 -1.65661 38223 ft 430 kts 349°
2026-04-25 16:06 54.21877 -1.68211 38244 ft 431 kts 349°
2026-04-25 16:06 54.27790 -1.69920 38249 ft 431 kts 348°
2026-04-25 16:07 54.33708 -1.71643 38249 ft 431 kts 349°
2026-04-25 16:07 54.39590 -1.73351 38252 ft 432 kts 348°
2026-04-25 16:08 54.45513 -1.75081 38276 ft 432 kts 348°
2026-04-25 16:08 54.51437 -1.76816 38278 ft 432 kts 349°
2026-04-25 16:09 54.57365 -1.78559 38274 ft 432 kts 348°
2026-04-25 16:09 54.63295 -1.80308 38273 ft 432 kts 349°
2026-04-25 16:10 54.68262 -1.81779 38273 ft 432 kts 349°
2026-04-25 16:10 54.75153 -1.83823 38281 ft 433 kts 349°
2026-04-25 16:11 54.81091 -1.85588 38271 ft 433 kts 349°
2026-04-25 16:11 54.87039 -1.87363 38267 ft 434 kts 349°
2026-04-25 16:12 54.92993 -1.89144 38261 ft 434 kts 349°
2026-04-25 16:12 54.98948 -1.90922 38270 ft 434 kts 349°
2026-04-25 16:13 55.04906 -1.92709 38276 ft 434 kts 349°
2026-04-25 16:13 55.10876 -1.94372 38268 ft 435 kts 355°
2026-04-25 16:14 55.16898 -1.93656 38269 ft 435 kts
2026-04-25 16:14 55.22884 -1.92044 38269 ft 435 kts
2026-04-25 16:15 55.28878 -1.90461 38275 ft 435 kts
2026-04-25 16:15 55.34867 -1.88855 38280 ft 435 kts
2026-04-25 16:16 55.40848 -1.87231 38281 ft 435 kts
2026-04-25 16:16 55.46827 -1.85601 38281 ft 435 kts
2026-04-25 16:17 55.52807 -1.83976 38285 ft 435 kts
2026-04-25 16:17 55.58778 -1.82361 38294 ft 434 kts
2026-04-25 16:18 55.64701 -1.80740 38295 ft 433 kts
2026-04-25 16:18 55.70657 -1.79101 38296 ft 433 kts
2026-04-25 16:19 55.76611 -1.77464 38294 ft 433 kts
2026-04-25 16:19 55.82558 -1.75827 38303 ft 432 kts
2026-04-25 16:20 55.91465 -1.73412 38299 ft 431 kts
2026-04-25 16:21 56.00447 -1.72570 38293 ft 431 kts
2026-04-25 16:21 56.06435 -1.72026 38292 ft 431 kts
2026-04-25 16:22 56.12420 -1.71474 38292 ft 431 kts
2026-04-25 16:22 56.18409 -1.70912 38296 ft 430 kts
2026-04-25 16:23 56.24380 -1.70362 38306 ft 429 kts
2026-04-25 16:23 56.30297 -1.69812 38311 ft 428 kts
2026-04-25 16:24 56.36233 -1.69250 38316 ft 426 kts
2026-04-25 16:24 56.42143 -1.68685 38314 ft 424 kts
2026-04-25 16:25 56.48034 -1.68130 38311 ft 423 kts
2026-04-25 16:25 56.53916 -1.67580 38310 ft 423 kts
2026-04-25 16:26 56.59788 -1.67022 38316 ft 422 kts
2026-04-25 16:26 56.65653 -1.66457 38315 ft 422 kts
2026-04-25 16:27 56.71506 -1.65902 38311 ft 421 kts
2026-04-25 16:27 56.77355 -1.65352 38306 ft 421 kts
2026-04-25 16:28 56.83202 -1.64799 38310 ft 420 kts
2026-04-25 16:28 56.89039 -1.64236 38309 ft 420 kts
2026-04-25 16:29 56.94871 -1.63671 38311 ft 419 kts
2026-04-25 16:29 57.00666 -1.63103 38306 ft 419 kts
2026-04-25 16:30 57.06521 -1.62532 38300 ft 419 kts
2026-04-25 16:30 57.12338 -1.61969 38315 ft 418 kts
2026-04-25 16:31 57.18135 -1.61411 38319 ft 417 kts
2026-04-25 16:31 57.23915 -1.60847 38317 ft 415 kts
2026-04-25 16:32 57.29682 -1.60271 38314 ft 415 kts
2026-04-25 16:32 57.35445 -1.59694 38311 ft 415 kts
2026-04-25 16:33 57.41160 -1.59130 38326 ft 414 kts
2026-04-25 16:33 57.46903 -1.58567 38323 ft 412 kts
2026-04-25 16:34 57.52624 -1.58012 38319 ft 412 kts
2026-04-25 16:34 57.58343 -1.57454 38317 ft 411 kts
2026-04-25 16:35 57.64060 -1.56876 38310 ft 411 kts
2026-04-25 16:35 57.69768 -1.56293 38326 ft 410 kts
2026-04-25 16:36 57.75464 -1.55716 38320 ft 409 kts
2026-04-25 16:36 57.80187 -1.55238 38319 ft 409 kts
2026-04-25 16:37 57.86828 -1.54555 38265 ft 409 kts
2026-04-25 16:37 57.88709 -1.54358 37939 ft 410 kts
2026-04-25 16:37 57.91550 -1.54063 37564 ft 407 kts
2026-04-25 16:37 57.94320 -1.53782 37166 ft 405 kts
2026-04-25 16:38 57.97120 -1.53501 36771 ft 402 kts
2026-04-25 16:38 57.99905 -1.53218 36363 ft 399 kts
2026-04-25 16:38 58.02668 -1.52936 35928 ft 397 kts
2026-04-25 16:38 58.06303 -1.52570 35365 ft 393 kts
2026-04-25 16:39 58.08146 -1.52387 35072 ft 392 kts
2026-04-25 16:39 58.10861 -1.52114 34646 ft 390 kts
2026-04-25 16:39 58.13565 -1.51835 34195 ft 388 kts
2026-04-25 16:39 58.16254 -1.51554 33731 ft 386 kts
2026-04-25 16:40 58.18923 -1.51276 33300 ft 383 kts
2026-04-25 16:40 58.21579 -1.51002 32865 ft 381 kts
2026-04-25 16:40 58.24216 -1.50724 32438 ft 379 kts
2026-04-25 16:40 58.26842 -1.50446 32013 ft 377 kts
2026-04-25 16:41 58.29451 -1.50174 31594 ft 375 kts
2026-04-25 16:41 58.31173 -1.49995 31323 ft 374 kts
2026-04-25 16:41 58.37215 -1.49368 30382 ft 371 kts
2026-04-25 16:42 58.39782 -1.49099 29957 ft 369 kts
2026-04-25 16:42 58.42335 -1.48831 29573 ft 365 kts
2026-04-25 16:42 58.44863 -1.48562 29203 ft 362 kts
2026-04-25 16:42 58.47328 -1.48298 28854 ft 358 kts
2026-04-25 16:43 58.49805 -1.48036 28476 ft 355 kts
2026-04-25 16:43 58.52257 -1.47780 28115 ft 351 kts
2026-04-25 16:43 58.54681 -1.47530 27757 ft 347 kts
2026-04-25 16:43 58.57079 -1.47282 27397 ft 343 kts
2026-04-25 16:44 58.59450 -1.47030 27030 ft 339 kts
2026-04-25 16:44 58.61796 -1.46779 26672 ft 335 kts
2026-04-25 16:44 58.64114 -1.46530 26301 ft 332 kts
2026-04-25 16:44 58.66412 -1.46282 25932 ft 329 kts
2026-04-25 16:45 58.68691 -1.46037 25570 ft 326 kts
2026-04-25 16:45 58.70950 -1.45796 25188 ft 324 kts
2026-04-25 16:45 58.73196 -1.45560 24807 ft 322 kts
2026-04-25 16:45 58.75429 -1.45327 24428 ft 320 kts
2026-04-25 16:46 58.77648 -1.45094 24040 ft 319 kts 360°
2026-04-25 16:46 58.79858 -1.44859 23620 ft 317 kts
2026-04-25 16:46 58.82050 -1.44620 23226 ft 314 kts
2026-04-25 16:46 58.83490 -1.44462 22972 ft 312 kts
2026-04-25 16:47 58.86368 -1.44150 22472 ft 308 kts
2026-04-25 16:47 58.88496 -1.43923 22096 ft 305 kts
2026-04-25 16:47 58.90604 -1.43698 21724 ft 302 kts
2026-04-25 16:47 58.92698 -1.43476 21353 ft 300 kts
2026-04-25 16:48 58.94777 -1.43257 20985 ft 298 kts
2026-04-25 16:48 58.96844 -1.43037 20620 ft 296 kts
2026-04-25 16:48 58.98896 -1.42819 20253 ft 295 kts
2026-04-25 16:48 59.00941 -1.42598 19890 ft 293 kts
2026-04-25 16:49 59.02977 -1.42374 19528 ft 292 kts
2026-04-25 16:49 59.05003 -1.42148 19153 ft 292 kts 360°
2026-04-25 16:49 59.07029 -1.41923 18796 ft 291 kts 360°
2026-04-25 16:49 59.09050 -1.41702 18412 ft 290 kts 360°
2026-04-25 16:50 59.11062 -1.41483 18035 ft 289 kts 360°
2026-04-25 16:50 59.13060 -1.41261 17675 ft 286 kts 360°
2026-04-25 16:50 59.15041 -1.41041 17322 ft 284 kts 360°
2026-04-25 16:50 59.17011 -1.40822 16969 ft 282 kts 359°
2026-04-25 16:51 59.18967 -1.40611 16617 ft 281 kts 359°
2026-04-25 16:51 59.20909 -1.40404 16269 ft 279 kts 359°
2026-04-25 16:51 59.22841 -1.40191 15926 ft 277 kts 359°
2026-04-25 16:51 59.24110 -1.40049 15701 ft 276 kts 359°
2026-04-25 16:52 59.26645 -1.39766 15247 ft 274 kts 359°
2026-04-25 16:52 59.28548 -1.39555 14906 ft 273 kts 359°
2026-04-25 16:52 59.30439 -1.39345 14567 ft 272 kts 359°
2026-04-25 16:52 59.32324 -1.39138 14236 ft 271 kts 359°
2026-04-25 16:53 59.36069 -1.38727 13521 ft 267 kts 359°
2026-04-25 16:53 59.37914 -1.38522 13185 ft 265 kts 359°
2026-04-25 16:53 59.39748 -1.38319 12855 ft 263 kts 359°
2026-04-25 16:54 59.41568 -1.38119 12524 ft 261 kts 359°
2026-04-25 16:54 59.43373 -1.37926 12195 ft 259 kts 359°
2026-04-25 16:54 59.45168 -1.37733 11871 ft 258 kts 359°
2026-04-25 16:54 59.46952 -1.37539 11546 ft 256 kts 359°
2026-04-25 16:55 59.48727 -1.37343 11218 ft 255 kts 359°
2026-04-25 16:55 59.50494 -1.37143 10895 ft 254 kts 359°
2026-04-25 16:55 59.52253 -1.36939 10574 ft 253 kts 359°
2026-04-25 16:55 59.54005 -1.36825 10211 ft 251 kts 353°
2026-04-25 16:56 59.55704 -1.37464 9825 ft 247 kts 339°
2026-04-25 16:56 59.57276 -1.38800 9455 ft 246 kts 334°
2026-04-25 16:56 59.58831 -1.40201 9093 ft 245 kts 334°
2026-04-25 16:56 59.60382 -1.41592 8746 ft 245 kts 334°
2026-04-25 16:57 59.61932 -1.42979 8384 ft 244 kts 335°
2026-04-25 16:57 59.62959 -1.43898 8145 ft 244 kts 335°
2026-04-25 16:57 59.65027 -1.45756 7666 ft 244 kts 335°
2026-04-25 16:57 59.66574 -1.47149 7304 ft 244 kts 335°
2026-04-25 16:58 59.68122 -1.48544 6945 ft 245 kts 335°
2026-04-25 16:58 59.69671 -1.49936 6583 ft 245 kts 335°
2026-04-25 16:58 59.71246 -1.51350 5982 ft 252 kts 336°
2026-04-25 16:58 59.72852 -1.52800 5539 ft 254 kts 336°
2026-04-25 16:59 59.74457 -1.54253 5151 ft 253 kts 336°
2026-04-25 16:59 59.76054 -1.55697 4802 ft 250 kts 336°
2026-04-25 16:59 59.77578 -1.57080 4650 ft 231 kts 336°
2026-04-25 16:59 59.78973 -1.58348 4436 ft 213 kts 336°
2026-04-25 17:00 59.80279 -1.59534 4187 ft 199 kts 337°
2026-04-25 17:00 59.81488 -1.60634 4096 ft 184 kts 337°
2026-04-25 17:00 59.82628 -1.61675 3994 ft 179 kts 337°
2026-04-25 17:00 59.83799 -1.62398 3897 ft 176 kts 356°
2026-04-25 17:01 59.84990 -1.62000 3818 ft 175 kts 22°
2026-04-25 17:01 59.85965 -1.60560 3586 ft 176 kts 48°
2026-04-25 17:01 59.86485 -1.58419 3236 ft 171 kts 75°
2026-04-25 17:01 59.86622 -1.56110 2929 ft 164 kts 81°
2026-04-25 17:02 59.86739 -1.53979 2659 ft 148 kts 81°
2026-04-25 17:02 59.86845 -1.52028 2392 ft 133 kts 80°
2026-04-25 17:02 59.86943 -1.50303 2185 ft 123 kts 81°
2026-04-25 17:02 59.87040 -1.48642 2013 ft 119 kts 80°
2026-04-25 17:03 59.87135 -1.47025 1829 ft 117 kts 80°
2026-04-25 17:03 59.87228 -1.45424 1672 ft 116 kts 80°
2026-04-25 17:03 59.87317 -1.43846 1499 ft 115 kts 81°
2026-04-25 17:03 59.87406 -1.42254 1333 ft 116 kts 80°
2026-04-25 17:04 59.87498 -1.40662 1157 ft 116 kts 81°
2026-04-25 17:04 59.87589 -1.39065 983 ft 116 kts 81°
2026-04-25 17:04 59.87680 -1.37479 821 ft 114 kts 81°
2026-04-25 17:04 59.87780 -1.35921 649 ft 113 kts 80°
2026-04-25 17:05 59.87882 -1.34370 455 ft 113 kts 82°
2026-04-25 17:05 59.88038 -1.31302 123 ft 111 kts 81°
2026-04-25 17:05 59.88126 -1.29826 36 ft 95 kts 82°
2026-04-25 17:06 59.88172 -1.28982 29 ft 37 kts 84°
2026-04-25 17:06 59.88189 -1.28691 28 ft 4 kts 79°
2026-04-25 17:06 59.88193 -1.28636 28 ft 4 kts 162°
2026-04-25 17:06 59.88182 -1.28732 28 ft 15 kts 266°
2026-04-25 17:07 59.88171 -1.28985 29 ft 20 kts 263°
2026-04-25 17:07 59.88118 -1.29203 32 ft 18 kts 210°
2026-04-25 17:07 59.88030 -1.29313 34 ft 13 kts 218°
2026-04-25 17:07 59.87987 -1.29379 34 ft 2 kts 216°
2026-04-25 17:08 59.87974 -1.29397 34 ft 1 kts 216°
2026-04-25 17:08 59.87972 -1.29399 34 ft 0 kts 216°
2026-04-25 17:10 59.87962 -1.29414 34 ft 7 kts 214°
2026-04-25 17:10 59.87876 -1.29361 34 ft 18 kts 144°
2026-04-25 17:10 59.87767 -1.29200 34 ft 22 kts 143°
2026-04-25 17:11 59.87645 -1.29021 34 ft 16 kts 143°
2026-04-25 17:11 59.87631 -1.28894 34 ft 12 kts 56°
2026-04-25 17:11 59.87662 -1.28845 34 ft 3 kts 336°
2026-04-25 17:11 59.87672 -1.28861 34 ft 1 kts 326°
2026-04-25 17:12 59.87682 -1.28875 32 ft 0 kts 324°